Location: Oroua River
(40.4333°S, 175.4333°E)
Time: 12:16:51
(UTC+00:00)

Cosmos 1656 - Pass Details

Date: 03 February 2023
Orbit: 798 x 848 km, 71.1° (Epoch: 30 March)

Event Time Altitude Azimuth Distance (km) Brightness Sun altitude
Exits shadow 16:03:16 22° 317° (NW) 1,765 4.8 -14.9°
Maximum altitude 16:06:54 59° 244° (WSW) 975 3.9 -14.4°
Drops below altitude 10° 16:12:35 10° 164° (SSE) 2,501 7.0 -13.5°
Sets 16:15:07 0° 160° (SSE) 3,446 7.9 -13.1°
